Location: London
(51.5074°N, 0.1278°W)
Time: 15:30:32
(UTC+01:00)

ISS - Pass Details

Date: 29 March 2018
Orbit: 403 x 408 km, 51.6° (Epoch: 18 October)

Event Time Altitude Azimuth Distance (km) Brightness Sun altitude
Rises 21:29:05 0° 264° (W) 2,376 0.9 -18.4°
Reaches altitude 10° 21:31:11 10° 264° (W) 1,513 -0.2 -18.7°
Maximum altitude 21:34:36 88° 351° (N) 430 -3.8 -19.1°
Enters shadow 21:34:56 71° 80° (E) 454 -3.8 -19.2°
